GW2386 Weather Reports


Display with metric or nautical units.
time (UTC)temp
F
wind
direction
speed
MPH
gust
MPH
rain 1hr
in
rain 24hr
in
rain mn
in
humidity
%
barometer
mb
20260504044619 64 189 4.0 8.0 0.00 0.00 0.00 61 1015.6
20260504043057 65 187 2.0 7.0 0.00 0.00 0.00 60 1015.6
20260504041556 65 189 4.0 9.0 0.00 0.00 0.00 58 1015.8
20260504040110 66 184 5.0 9.0 0.00 0.00 0.00 58 1015.8
20260504034607 66 176 5.0 10.0 0.00 0.00 0.00 57 1015.8
20260504033058 66 184 3.0 8.0 0.00 0.00 0.00 58 1015.5
20260504031559 66 181 2.0 6.0 0.00 0.00 0.00 59 1015.5
20260504030059 66 176 1.0 3.0 0.00 0.00 0.00 58 1015.4
20260504024604 66 0 0.0 3.0 0.00 0.00 0.00 58 1015.4
20260504023056 67 188 1.0 4.0 0.00 0.00 0.00 56 1015.4
20260504021556 68 0 0.0 4.0 0.00 0.00 0.00 54 1015.2
20260504020056 68 189 0.0 5.0 0.00 0.00 0.00 51 1015.1
20260504014555 69 182 4.0 8.0 0.00 0.00 0.00 49 1015.4
20260504013108 70 187 4.0 8.0 0.00 0.00 0.00 47 1015.4
20260504011556 71 360 6.0 13.0 0.00 0.00 0.00 44 1015.3
20260504010101 72 182 6.0 15.0 0.00 0.00 0.00 43 1015.2
20260504004608 72 179 5.0 11.0 0.00 0.00 0.00 43 1015.3
20260504003055 73 178 6.0 12.0 0.00 0.00 0.00 42 1015.4
20260504001555 73 167 6.0 12.0 0.00 0.00 0.00 41 1015.3
20260504000114 74 223 7.0 14.0 0.00 0.00 0.00 41 1015.4
20260503234554 74 179 6.0 15.0 0.00 0.00 0.00 41 1015.6
20260503233057 75 360 7.0 15.0 0.00 0.00 0.00 40 1015.6
20260503231558 75 195 4.0 11.0 0.00 0.00 0.00 41 1015.6
20260503224559 75 196 8.0 15.0 0.00 0.00 0.00 40 1015.9
20260503223057 75 360 9.0 17.0 0.00 0.00 0.00 40 1016.0
20260503221610 75 196 6.0 12.0 0.00 0.00 0.00 39 1016.3
20260503220122 76 360 6.0 13.0 0.00 0.00 0.00 38 1016.5
20260503214601 75 194 9.0 16.0 0.00 0.00 0.00 37 1016.5
20260503213100 76 156 5.0 14.0 0.00 0.00 0.00 38 1016.5
20260503211556 78 360 8.0 19.0 0.00 0.00 0.00 37 1016.7
20260503210057 78 360 6.0 14.0 0.00 0.00 0.00 37 1017.3
20260503204554 77 197 7.0 16.0 0.00 0.00 0.00 38 1017.6
20260503203059 77 360 7.0 15.0 0.00 0.00 0.00 37 1017.9
20260503201559 76 360 9.0 14.0 0.00 0.00 0.00 39 1018.4
20260503200101 76 121 3.0 10.0 0.00 0.00 0.00 39 1018.6
20260503194556 77 199 3.0 16.0 0.00 0.00 0.00 38 1018.8
20260503193103 75 169 3.0 14.0 0.00 0.00 0.00 39 1019.0
20260503191602 76 173 5.0 15.0 0.00 0.00 0.00 39 1019.3
20260503190054 75 221 6.0 15.0 0.00 0.00 0.00 40 1019.5
20260503184604 75 178 5.0 18.0 0.00 0.00 0.00 39 1019.8
20260503183056 75 360 6.0 15.0 0.00 0.00 0.00 41 1019.9
20260503181602 75 108 5.0 11.0 0.00 0.00 0.00 39 1020.2
20260503180106 74 182 8.0 13.0 0.00 0.00 0.00 42 1020.5
20260503174554 73 195 6.0 16.0 0.00 0.00 0.00 41 1020.7
20260503173103 72 360 5.0 16.0 0.00 0.00 0.00 44 1020.9
20260503171554 72 360 8.0 15.0 0.00 0.00 0.00 41 1021.1
20260503160114 70 217 6.0 13.0 0.00 0.00 0.00 49 1022.2
20260503081556 50 188 0.0 2.0 0.00 0.00 0.00 86 1021.4
20260503071612 53 0 0.0 0.0 0.00 0.00 0.00 83 1021.5
20260503070111 53 0 0.0 0.0 0.00 0.00 0.00 83 1021.5
20260503060114 54 0 0.0 0.0 0.00 0.00 0.00 81 1021.6
20260503054619 55 0 0.0 0.0 0.00 0.00 0.00 81 1021.6
20260503053056 55 0 0.0 0.0 0.00 0.00 0.00 78 1021.6